Location: Newark
(44.3681°N, 100.3364°W)
Time: 09:20:06
(UTC+00:00)

Explorer 7 - Pass Details

Date: 22 February 2020
Orbit: 485 x 679 km, 50.3° (Epoch: 28 March)

Event Time Altitude Azimuth Distance (km) Brightness Sun altitude
Rises 22:54:28 0° 295° (WNW) 2,823 11.0 13.3°
Reaches altitude 10° 22:56:52 10° 301° (WNW) 1,886 10.1 12.9°
Maximum altitude 23:01:04 52° 18° (NNE) 687 7.2 12.3°
Drops below altitude 10° 23:05:00 10° 96° (E) 1,767 8.9 11.6°
Sets 23:07:11 0° 101° (E) 2,625 9.8 11.3°
